Waarnemingen

Advertentie
Mijn weer
Isle Of Portland, Groot Brittannië (3857): temperatuur & dauwpunt: 11.12.2017 08:00:00 - 17.12.2017 08:00:00 (GMT)Isle Of Portland, Groot Brittannië (3857): windsnelheid & windstoten: 11.12.2017 08:00:00 - 17.12.2017 08:00:00 (GMT)Isle Of Portland, Groot Brittannië (3857): windrichting: 11.12.2017 08:00:00 - 17.12.2017 08:00:00 (GMT)Isle Of Portland, Groot Brittannië (3857): luchtdruk: 11.12.2017 08:00:00 - 17.12.2017 08:00:00 (GMT)Isle Of Portland, Groot Brittannië (3857): zicht: 11.12.2017 08:00:00 - 17.12.2017 08:00:00 (GMT)Isle Of Portland, Groot Brittannië (3857): neerslag: 11.12.2017 08:00:00 - 17.12.2017 08:00:00 (GMT)
Datum & Tijd tt [°C] td [°C] ff [km/u] ff [kn] fx [km/u] fx [kn] dd ppp [hPa] vv [km] rr [mm]
17.12.2017 08:00:00 - - - - - - - - - -
17.12.2017 07:00:00 7,5 6,1 8 4 - - WZW 1025,4 30 0,0
17.12.2017 06:00:00 6,8 5,6 4 2 - - W 1025,6 30 0,0
17.12.2017 05:00:00 6,0 4,6 2 1 - - NW 1025,2 30 0,0
17.12.2017 04:00:00 6,5 4,7 11 6 - - NW 1025,3 28 0,0
17.12.2017 03:00:00 6,9 5,0 18 10 - - NW 1025,5 30 0,0
17.12.2017 02:00:00 6,8 5,2 16 9 - - NW 1025,1 30 0,0
17.12.2017 01:00:00 6,8 5,4 22 12 - - NW 1024,7 30 0,0
17.12.2017 00:00:00 6,5 5,0 18 10 - - NW 1024,7 35 -
16.12.2017 23:00:00 6,6 4,8 24 13 - - NW 1024,5 28 0,0
16.12.2017 22:00:00 7,1 4,6 29 16 - - NW 1024,0 30 0,0
16.12.2017 21:00:00 7,5 5,0 28 15 - - NW 1023,3 35 0,0
16.12.2017 20:00:00 7,7 4,7 28 15 - - NW 1022,9 40 0,0
16.12.2017 19:00:00 7,8 5,2 26 14 - - WNW 1022,7 29 0,0
16.12.2017 18:00:00 7,7 5,3 34 18 52 28 W 1022,4 30 0,0
16.12.2017 17:00:00 7,6 4,3 41 22 54 29 W 1022,0 30 0,0
16.12.2017 16:00:00 7,7 2,8 39 21 61 33 WNW 1021,3 40 0,0
16.12.2017 15:00:00 8,1 2,8 37 20 52 28 WNW 1020,9 28 0,0
16.12.2017 14:00:00 7,7 3,1 35 19 50 27 WNW 1020,8 30 0,0
16.12.2017 13:00:00 7,5 3,4 34 18 - - WNW 1021,1 24 0,0
16.12.2017 12:00:00 7,7 3,2 28 15 - - WNW 1021,0 30 0,0
16.12.2017 11:00:00 7,0 2,9 31 17 - - NW 1021,1 30 0,0
16.12.2017 10:00:00 6,0 2,6 29 16 - - NW 1020,7 20 0,0
16.12.2017 09:00:00 4,9 2,4 18 10 - - NNW 1020,1 26 0,0
16.12.2017 08:00:00 4,4 2,2 24 13 - - NNW 1019,0 25 0,0
16.12.2017 07:00:00 5,0 2,7 31 17 48 26 NNW 1018,2 30 0,0
16.12.2017 06:00:00 5,3 3,3 37 20 52 28 NW 1017,1 30 0,0
16.12.2017 05:00:00 5,2 2,5 31 17 46 25 NW 1016,5 30 0,0
16.12.2017 04:00:00 5,2 2,1 34 18 46 25 NW 1016,0 35 0,0
16.12.2017 03:00:00 5,0 1,0 28 15 - - NW 1015,7 40 0,0
16.12.2017 02:00:00 4,9 0,7 35 19 50 27 NW 1015,0 30 0,0
16.12.2017 01:00:00 4,7 1,3 37 20 50 27 NW 1014,3 29 0,0
16.12.2017 00:00:00 4,8 1,7 34 18 - - NNW 1013,7 30 0,0
15.12.2017 23:00:00 5,3 2,1 26 14 - - NW 1013,2 35 0,0
15.12.2017 22:00:00 5,4 1,6 28 15 - - NNW 1012,4 35 0,0
15.12.2017 21:00:00 5,9 2,0 29 16 54 29 NNW 1011,6 25 0,0
15.12.2017 20:00:00 6,1 2,5 35 19 48 26 NNW 1010,6 35 0,0
15.12.2017 19:00:00 5,9 1,8 37 20 52 28 N 1009,2 27 0,0
15.12.2017 18:00:00 5,6 1,8 37 20 50 27 NNW 1008,3 40 0,0
15.12.2017 17:00:00 6,1 2,2 31 17 50 27 NNW 1006,9 35 0,0
15.12.2017 16:00:00 6,7 1,9 39 21 55 30 NW 1005,7 35 0,0
15.12.2017 15:00:00 7,3 1,7 41 22 57 31 NW 1004,5 30 0,0
15.12.2017 14:00:00 7,3 1,2 39 21 48 26 NNW 1003,5 35 0,0
15.12.2017 13:00:00 7,2 1,5 34 18 48 26 NNW 1003,0 30 0,0
15.12.2017 12:00:00 6,8 1,5 39 21 55 30 NW 1002,1 30 0,0
15.12.2017 11:00:00 6,3 2,2 39 21 52 28 NNW 1001,4 28 0,0
15.12.2017 10:00:00 5,7 2,2 37 20 57 31 NNW 1000,3 40 0,0
15.12.2017 09:00:00 5,3 2,0 37 20 65 35 NNW 998,2 26 0,0
15.12.2017 08:00:00 6,2 2,8 50 27 72 39 NNW 995,8 23 0,0
15.12.2017 07:00:00 7,3 4,2 52 28 87 47 WNW 993,4 17 0,2
15.12.2017 06:00:00 8,0 4,1 55 30 80 43 WNW 992,7 15 0,0
15.12.2017 05:00:00 8,0 4,2 52 28 76 41 W 992,8 18 0,0
15.12.2017 04:00:00 8,5 5,0 54 29 78 42 W 993,0 13 0,0
15.12.2017 03:00:00 7,8 4,6 48 26 68 37 W 993,6 12 0,0
15.12.2017 02:00:00 7,7 3,8 46 25 63 34 W 993,5 24 0,0
15.12.2017 01:00:00 7,7 4,2 44 24 61 33 W 993,7 22 0,0
15.12.2017 00:00:00 7,2 2,3 41 22 61 33 WNW 993,4 21 0,0
14.12.2017 23:00:00 7,1 3,3 39 21 57 31 WNW 992,6 30 0,0
14.12.2017 22:00:00 7,0 4,5 41 22 65 35 WNW 991,7 30 0,0
14.12.2017 21:00:00 6,7 4,1 41 22 65 35 WNW 990,5 30 0,0
14.12.2017 20:00:00 6,8 4,2 50 27 67 36 W 989,5 30 0,8
14.12.2017 19:00:00 7,1 4,7 55 30 72 39 W 989,4 8 0,4
14.12.2017 18:00:00 6,5 3,3 55 30 72 39 W 989,9 4,2 0,0
14.12.2017 17:00:00 7,3 3,3 44 24 61 33 WZW 990,1 12 0,0
14.12.2017 16:00:00 6,8 3,4 46 25 63 34 W 990,7 15 0,0
14.12.2017 15:00:00 6,9 3,9 29 16 65 35 W 991,2 21 0,4
14.12.2017 14:00:00 5,3 3,0 44 24 81 44 WNW 991,8 8 0,8
14.12.2017 13:00:00 7,5 3,4 46 25 67 36 W 992,4 20 0,0
14.12.2017 12:00:00 7,3 3,1 48 26 74 40 W 993,7 18 0,0
14.12.2017 11:00:00 7,7 2,5 50 27 76 41 W 994,0 17 0,0
14.12.2017 10:00:00 7,4 3,8 54 29 91 49 WZW 994,8 14 0,0
14.12.2017 09:00:00 7,8 3,1 63 34 80 43 W 995,0 16 0,0
14.12.2017 08:00:00 7,6 2,9 57 31 80 43 W 995,1 16 0,0
14.12.2017 07:00:00 7,3 3,6 59 32 80 43 W 995,6 13 0,0
14.12.2017 06:00:00 7,5 3,0 57 31 76 41 W 996,0 15 0,0
14.12.2017 05:00:00 7,0 3,1 61 33 89 48 W 996,4 16 0,0
14.12.2017 04:00:00 7,1 2,7 70 38 91 49 W 996,7 11 0,0
14.12.2017 03:00:00 7,3 3,3 55 30 93 50 WZW 997,5 14 0,0
14.12.2017 02:00:00 7,5 2,8 63 34 91 49 W 997,2 18 0,0
14.12.2017 01:00:00 7,3 3,2 55 30 107 58 W 997,9 17 0,2
14.12.2017 00:00:00 7,2 2,6 65 35 94 51 WNW 997,2 17 0,0
13.12.2017 23:00:00 7,3 2,1 68 37 94 51 W 996,6 16 0,0
13.12.2017 22:00:00 7,0 2,4 68 37 104 56 W 995,3 15 0,2
13.12.2017 21:00:00 6,8 2,0 72 39 113 61 W 993,6 2,2 0,6
13.12.2017 20:00:00 6,3 4,0 72 39 119 64 W 992,9 1,0 3,0
13.12.2017 19:00:00 8,4 4,5 55 30 89 48 W 994,1 17 0,0
13.12.2017 18:00:00 8,5 4,9 42 23 61 33 W 995,4 14 0,0
13.12.2017 17:00:00 8,4 4,4 46 25 68 37 W 995,6 13 0,0
13.12.2017 16:00:00 8,1 5,4 50 27 85 46 WNW 995,4 17 0,8
13.12.2017 15:00:00 8,5 6,0 59 32 83 45 W 994,6 2,0 0,4
13.12.2017 14:00:00 10,6 8,9 52 28 63 34 W 994,7 14 0,0
13.12.2017 13:00:00 9,9 9,3 44 24 70 38 WZW 996,4 7 1,2
13.12.2017 12:00:00 10,3 8,4 54 29 70 38 WZW 997,8 9 0,0
13.12.2017 11:00:00 10,4 8,4 44 24 61 33 WZW 999,5 2,0 0,0
13.12.2017 10:00:00 9,9 7,5 41 22 52 28 WZW 1000,8 13 0,0
13.12.2017 09:00:00 9,5 7,5 35 19 54 29 WZW 1001,8 15 0,0
13.12.2017 08:00:00 9,3 7,0 44 24 57 31 W 1002,5 15 0,4
13.12.2017 07:00:00 9,5 7,3 42 23 55 30 WZW 1003,0 12 0,0
13.12.2017 06:00:00 9,6 6,6 39 21 50 27 W 1003,5 16 0,0
13.12.2017 05:00:00 9,6 6,8 37 20 50 27 W 1003,4 12 0,0
13.12.2017 04:00:00 9,3 6,3 41 22 54 29 W 1003,5 11 0,0
13.12.2017 03:00:00 9,4 6,7 39 21 52 28 WNW 1003,3 12 0,0
13.12.2017 02:00:00 9,6 8,5 34 18 65 35 WNW 1003,2 12 1,0
13.12.2017 01:00:00 10,4 10,2 46 25 63 34 ZW 1003,6 7 0,2
13.12.2017 00:00:00 10,0 9,8 44 24 61 33 ZZW 1004,5 3,2 0,6
12.12.2017 23:00:00 9,2 8,8 46 25 63 34 ZZW 1005,6 3,6 0,0
12.12.2017 22:00:00 9,1 8,2 42 23 57 31 ZW 1006,5 9 0,4
12.12.2017 21:00:00 8,7 7,8 41 22 52 28 ZW 1007,7 8 1,4
12.12.2017 20:00:00 8,6 6,0 41 22 55 30 ZW 1008,6 15 0,0
12.12.2017 19:00:00 9,6 5,1 37 20 46 25 ZW 1008,8 30 0,0
12.12.2017 18:00:00 8,7 4,8 22 12 - - ZW 1009,4 35 0,2
12.12.2017 17:00:00 7,8 4,4 22 12 - - ZW 1009,7 40 0,0
12.12.2017 16:00:00 8,1 3,6 16 9 - - WZW 1009,8 30 0,0
12.12.2017 15:00:00 8,0 2,6 22 12 - - WZW 1010,0 40 0,0
12.12.2017 14:00:00 8,0 3,7 21 11 - - WZW 1010,4 30 0,0
12.12.2017 13:00:00 7,5 3,1 16 9 - - WZW 1010,2 45 0,0
12.12.2017 12:00:00 7,4 2,6 8 4 - - WZW 1010,0 28 0,0
12.12.2017 11:00:00 7,0 2,5 13 7 - - W 1010,7 40 0,0
12.12.2017 10:00:00 7,4 2,1 2 1 - - ZZO 1010,0 50 0,0
12.12.2017 09:00:00 5,1 1,3 2 1 - - O 1009,5 40 0,0
12.12.2017 08:00:00 2,8 -0,6 5 3 - - N 1009,1 50 0,0
12.12.2017 07:00:00 1,6 -1,3 9 5 - - N 1008,1 45 0,0
12.12.2017 06:00:00 3,6 0,2 16 9 - - NNW 1007,1 19 0,0
12.12.2017 05:00:00 3,6 0,3 21 11 - - NW 1006,3 50 0,0
12.12.2017 04:00:00 3,6 0,4 22 12 - - NNW 1005,2 30 0,0
12.12.2017 03:00:00 4,1 0,6 28 15 - - NW 1004,7 45 0,0
12.12.2017 02:00:00 4,0 1,2 21 11 - - NW 1003,5 40 0,0
12.12.2017 01:00:00 3,7 0,7 22 12 - - NNW 1002,3 45 0,0
12.12.2017 00:00:00 3,6 0,8 22 12 - - NNW 1001,5 40 0,0
11.12.2017 23:00:00 3,6 0,0 15 8 - - NW 1000,6 50 0,0
11.12.2017 22:00:00 3,2 -1,0 13 7 - - NNW 1000,0 30 0,0
11.12.2017 21:00:00 3,1 -1,3 21 11 - - NNW 998,8 50 0,0
11.12.2017 20:00:00 2,6 -2,0 24 13 - - NNW 996,9 45 0,0
11.12.2017 19:00:00 3,1 -1,1 31 17 52 28 NNW 995,5 50 0,0
11.12.2017 18:00:00 3,4 -0,4 42 23 57 31 NW 993,8 45 0,0
11.12.2017 17:00:00 3,5 0,2 39 21 59 32 NNW 992,3 30 0,0
11.12.2017 16:00:00 3,7 0,2 50 27 63 34 NNW 990,5 30 0,0
11.12.2017 15:00:00 3,9 0,8 48 26 63 34 NNW 988,9 35 0,0
11.12.2017 14:00:00 3,2 0,6 44 24 65 35 NNW 987,6 35 0,0
11.12.2017 13:00:00 3,1 1,4 50 27 65 35 N 986,0 29 0,0
11.12.2017 12:00:00 3,3 2,1 46 25 65 35 N 984,5 15 0,0
11.12.2017 11:00:00 2,8 1,9 48 26 70 38 N 982,9 13 0,2
11.12.2017 10:00:00 2,9 2,1 41 22 65 35 N 981,1 15 0,6
11.12.2017 09:00:00 2,5 1,8 42 23 65 35 N 979,4 11 1,4
11.12.2017 08:00:00 2,3 1,7 39 21 61 33 N 977,6 6 1,0

tt = temperatuur
td = dauwpunt
ff = windsnelheid
fx = windstoten
dd = windrichting
ppp = luchtdruk
vv = zicht
rr = neerslag

Weerstations in de omgeving